Temperature
18 17 17 17 17 17 17 17 17 17 16 16 16 16 16 16 15 15 15 15 15 15 15 15 15 15 15 15 14 14 14 14 14 14 14 14 14 14 14 14 14 14 14
18 18 17 17 17 17 17 17 17 16 16 16 16 16 16 16 16 15 15 15 15 15 15 15 15 14 15 15 14 14 14 14 14 14 14 14 14 14 14 14 14 14 14
18 18 17 17 17 17 17 17 17 16 16 16 16 16 16 16 16 15 15 15 15 15 15 15 15 14 15 14 14 14 14 14 14 14 14 14 14 14 14 14 14 14 14
18 18 18 18 17 17 17 17 17 16 16 16 16 16 16 16 15 15 15 15 15 15 15 15 15 15 15 14 14 14 14 14 14 13 14 14 14 14 14 14 14 14 14
18 18 18 18 17 17 17 17 16 16 16 16 16 16 16 16 15 15 15 15 15 15 15 15 15 15 14 14 14 14 14 14 13 13 13 14 14 14 13 13 13 13 13
18 18 18 18 17 17 17 17 16 16 16 16 16 16 16 16 16 15 15 15 15 15 15 15 14 14 14 14 14 14 14 14 13 13 13 13 14 13 13 13 13 13 13
19 18 18 18 17 17 17 17 16 16 16 16 16 16 16 16 15 15 15 15 15 15 14 14 14 14 14 14 14 14 14 14 13 13 13 13 13 13 13 12 12 12 12
18 18 18 18 17 17 17 17 17 16 16 16 16 16 16 15 15 15 15 14 14 14 14 14 14 14 14 14 14 13 13 13 13 13 13 13 13 13 12 12 12 11 12
18 18 18 17 17 17 17 17 16 16 16 16 16 15 15 15 15 15 14 14 14 14 14 14 14 14 14 13 13 13 13 13 13 12 12 12 12 12 12 11 11 11 11
17 17 17 17 17 17 16 16 16 15 15 15 15 15 15 14 14 14 14 14 14 14 14 13 13 13 13 13 12 13 13 13 12 12 12 12 12 12 11 11 11 11 10
16 16 16 16 16 16 15 15 15 15 15 15 14 14 14 14 14 14 13 13 13 13 13 13 13 13 12 12 12 12 12 12 12 12 12 11 11 11 11 11 11 10 10
15 15 15 15 15 15 15 15 15 14 14 14 14 14 13 13 13 13 13 12 12 12 12 12 12 12 12 12 11 11 11 11 11 11 10 10 10 11 11 10 10 10 10
15 15 14 14 14 14 14 14 14 14 14 13 13 13 13 13 13 12 12 12 12 12 12 11 11 11 11 11 11 11 10 10 10 10 10 10 10 10 10 10 10 10 10
14 14 14 13 13 13 13 13 13 13 13 13 12 12 12 12 12 12 12 12 11 11 11 11 11 11 10 10 10 10 10 10 9 9 9 9 9 9 9 9 9 9 9
13 13 13 13 13 13 13 13 12 12 12 12 12 12 12 12 12 11 11 11 11 11 11 10 10 10 10 10 10 9 9 9 9 9 9 8 8 8 8 8 8 8 8
13 12 12 12 12 12 12 12 12 12 12 12 12 12 11 11 11 11 11 11 11 10 10 10 10 9 9 9 9 9 9 8 8 8 8 8 8 8 8 8 8 8 7
12 12 12 11 11 11 11 11 11 11 11 11 11 11 11 11 11 11 10 10 10 10 10 9 9 9 9 9 8 8 8 8 8 7 7 7 7 7 7 7 7 7 6
11 11 11 11 11 11 11 11 11 11 10 10 10 10 10 10 10 10 10 10 9 9 9 9 9 8 8 8 8 7 7 7 7 7 7 7 7 6 6 6 6 6 6
11 10 10 10 10 10 10 10 10 10 10 10 10 10 10 9 9 9 9 9 9 8 8 8 8 7 7 7 7 7 7 7 6 6 6 6 6 6 6 5 5 5 5
10 10 10 10 10 10 9 9 9 9 9 9 9 9 9 8 8 8 8 8 8 7 7 7 7 7 7 6 6 6 6 6 6 6 6 6 5 5 5 5 5 5 5
9 9 9 9 9 9 9 9 9 8 8 8 8 8 8 7 7 7 7 7 7 6 6 6 6 6 6 6 6 6 5 5 5 5 5 5 5 5 5 5 5 5 5
9 9 8 8 8 8 8 8 8 7 7 7 7 7 7 7 7 6 6 6 6 6 6 6 6 6 5 5 5 5 5 5 5 5 5 5 5 4 4 4 4 4 4
8 8 8 8 7 7 7 7 7 6 6 6 6 6 6 6 6 6 5 5 5 5 5 5 5 5 5 5 5 5 5 4 4 4 4 4 4 4 4 4 4 4 4
8 7 7 7 7 6 6 6 6 6 6 6 5 5 5 5 5 5 5 5 5 5 5 4 4 4 4 4 4 4 4 4 4 4 4 4 4 4 4 4 4 4 4
7 6 6 6 6 6 6 6 5 5 5 5 5 5 5 5 4 4 4 4 4 4 4 4 4 4 4 4 4 4 4 4 4 4 4 4 4 4 4 4 4 4 4
6 6 6 5 5 5 5 5 5 4 4 4 4 4 4 4 4 4 4 4 4 4 4 4 4 4 4 4 4 4 4 4 4 4 4 4 4 4 4 4 4 4 4
Wind_Speed
9 8 8 7 7 8 8 8 8 7 8 9 9 8 8 8 7 7 6 6 6 5 5 6 5 4 3 3 3 3 3 3 4 3 3 2 3 3 4 5 6 7 8
9 8 8 8 8 8 8 8 8 7 7 8 8 8 8 9 8 8 8 8 8 7 7 6 6 5 5 4 4 4 4 4 4 4 3 2 4 3 4 4 6 6 7
8 8 8 7 8 9 8 8 8 8 7 7 8 9 9 9 9 9 9 8 8 8 8 8 7 6 6 5 5 5 4 4 4 4 4 3 3 3 3 4 5 5 7
9 9 9 9 9 9 8 7 8 8 8 8 8 9 9 9 9 9 8 8 8 8 8 8 8 8 8 7 6 6 5 5 5 5 5 4 4 3 3 4 5 4 5
9 10 10 9 8 7 7 7 7 7 8 7 8 7 7 7 8 9 9 9 8 8 7 8 8 9 10 9 7 7 6 5 5 5 6 4 5 4 5 4 5 6 6
9 10 8 8 8 8 8 8 7 7 6 6 7 7 7 7 10 12 10 8 8 8 8 7 7 9 10 11 12 11 10 8 8 6 6 7 8 7 6 5 5 5 6
8 7 7 7 8 7 7 7 7 7 6 6 6 6 7 8 10 11 13 8 7 7 7 7 7 7 7 7 9 10 11 13 12 9 10 10 9 8 6 7 7 8 8
7 6 6 7 7 6 6 6 6 5 5 6 6 6 6 7 8 9 10 8 7 7 7 7 7 7 6 7 6 7 8 8 10 10 10 11 10 9 8 8 8 8 8
6 6 6 7 7 7 6 6 5 5 5 5 4 5 5 5 6 8 8 5 5 7 6 7 7 7 7 7 6 7 8 8 9 12 13 14 15 14 10 6 7 7 9
4 3 4 5 5 5 5 4 4 4 5 4 4 4 5 5 5 6 7 4 5 5 4 5 6 6 6 6 7 7 9 8 6 7 7 10 11 12 12 10 9 9 8
4 5 4 3 3 3 3 2 3 3 3 3 2 3 3 3 3 5 6 4 4 4 4 3 3 4 6 6 7 7 9 8 6 6 7 7 7 7 7 8 9 9 10
5 6 5 4 3 3 3 2 2 3 3 2 2 1 1 1 2 3 6 6 5 4 4 3 2 3 4 5 5 6 8 6 5 5 5 6 6 7 7 7 9 11 12
6 6 5 4 3 3 3 2 2 2 2 1 1 1 1 1 1 2 4 5 6 4 3 4 4 4 4 4 5 6 5 4 4 5 6 7 7 7 7 7 8 9 10
7 6 5 5 4 4 3 2 2 1 1 1 1 1 1 1 1 1 1 2 2 2 2 2 3 3 3 3 4 3 3 4 4 5 6 7 6 6 7 7 7 7 8
8 6 6 5 5 4 4 3 2 1 1 2 2 2 2 2 2 2 1 1 1 1 1 1 1 2 2 3 3 3 3 3 4 5 5 6 7 7 8 7 7 7 8
7 6 5 5 4 4 4 5 6 5 5 3 0 1 2 3 2 1 1 2 1 1 1 2 2 3 3 4 4 5 5 5 5 5 6 6 7 8 9 8 7 8 10
7 5 4 4 4 4 4 4 4 6 9 9 7 5 2 3 2 2 2 1 0 2 2 3 3 4 4 4 5 5 6 6 5 6 7 7 7 8 8 9 9 9 10
6 6 5 4 4 4 4 4 3 3 4 4 6 7 6 4 3 3 2 2 1 0 2 3 4 5 5 5 5 6 6 6 6 7 7 7 7 8 8 9 9 11 11
6 4 4 4 4 4 4 4 4 3 3 2 3 5 6 5 4 3 2 1 2 3 3 4 5 5 5 6 6 6 6 7 7 7 7 8 8 8 9 10 11 13 12
5 7 6 4 4 4 4 4 3 3 2 2 3 3 4 3 3 3 2 2 3 4 4 5 5 6 6 6 6 6 6 7 7 7 8 8 8 8 10 12 11 11 11
4 5 7 5 4 4 3 3 3 2 2 2 3 3 3 2 3 3 3 4 4 5 6 6 6 6 6 6 6 7 9 8 7 7 8 8 9 9 9 10 11 11 11
4 4 4 4 4 4 3 3 3 2 3 3 4 4 5 3 3 4 4 4 5 5 6 6 6 6 6 7 7 8 8 9 9 8 9 9 9 10 10 10 11 11 11
4 4 4 3 3 3 3 3 3 3 3 4 4 4 4 4 5 5 5 5 5 6 6 6 7 7 7 7 7 7 8 8 8 9 9 9 9 10 10 11 13 13 12
4 3 3 3 3 3 3 3 3 4 4 4 4 4 5 5 5 6 6 6 6 7 6 6 7 9 11 9 8 8 8 9 10 9 11 11 11 11 10 11 12 13 13
3 3 3 3 3 3 3 3 4 4 4 4 5 5 5 6 6 6 7 7 8 8 9 9 8 8 11 13 11 11 11 12 12 11 10 9 11 12 12 12 12 12 12
3 3 3 3 3 3 3 3 4 4 4 5 5 5 6 6 6 7 7 7 7 8 9 8 9 11 13 12 13 14 14 14 13 12 10 9 10 10 11 10 13 11 12
Wind_Direction
177 179 176 178 180 176 182 189 188 183 178 182 184 182 182 184 181 179 184 180 184 190 190 189 196 186 183 182 176 175 182 179 213 253 248 262 268 276 292 285 273 267 270
179 176 177 174 171 176 186 188 184 184 186 188 185 185 190 192 187 187 192 190 193 199 203 199 207 199 198 196 193 197 199 199 209 245 258 256 255 265 273 277 277 271 267
173 174 176 176 177 183 186 182 181 183 185 187 187 192 196 195 193 196 196 195 200 206 206 206 212 204 213 210 208 213 215 211 211 230 255 256 264 268 278 279 277 274 276
175 179 184 188 188 188 186 182 182 185 188 192 197 199 201 198 197 199 199 201 205 210 211 213 214 211 217 215 216 219 217 216 215 231 251 261 262 263 259 272 284 277 281
179 187 194 189 185 181 181 183 185 188 195 194 195 200 201 201 206 203 204 207 208 214 219 221 222 219 217 214 217 217 211 220 226 235 250 260 264 258 257 254 270 284 283
182 192 189 181 182 185 186 184 185 192 192 188 196 200 205 216 212 204 203 209 210 215 225 231 232 230 229 224 225 220 210 216 228 235 249 254 261 259 257 253 262 275 283
177 182 181 180 184 189 185 180 189 193 189 193 203 204 215 225 219 213 208 208 213 218 223 230 238 237 227 234 237 237 232 226 221 226 244 250 256 251 250 259 252 253 261
167 173 173 173 179 178 173 181 188 187 193 203 210 214 221 229 221 217 212 210 217 222 222 223 229 238 233 229 239 246 248 244 235 233 242 250 254 253 244 252 260 264 264
164 172 171 170 170 169 177 186 186 181 191 200 202 212 219 234 223 217 208 210 221 230 231 228 227 235 238 227 229 248 262 264 253 242 245 256 260 259 254 256 258 259 272
151 150 149 153 162 174 184 186 181 185 200 201 208 213 214 224 217 210 200 207 222 234 238 234 226 231 241 231 228 237 254 263 271 277 267 267 267 266 253 239 244 254 265
111 104 104 121 143 152 152 151 156 166 169 183 206 220 212 220 222 204 191 196 215 232 239 239 237 233 242 245 235 238 250 264 274 273 277 278 275 269 263 248 237 239 251
97 95 91 88 94 108 116 117 130 147 159 183 191 216 238 225 219 215 197 199 203 218 237 241 241 241 253 257 250 252 262 269 267 270 273 276 279 279 277 272 260 251 248
79 78 79 82 83 89 100 104 112 126 156 180 183 228 271 278 251 239 225 219 215 220 240 243 255 264 265 263 261 269 272 263 258 263 269 273 272 275 280 282 277 267 262
73 65 63 66 61 59 70 88 105 116 130 134 170 245 274 299 297 287 233 218 211 216 244 264 273 267 253 255 271 274 260 252 252 261 271 278 284 282 279 279 280 284 283
68 63 59 58 59 54 52 51 62 82 150 179 210 213 218 257 265 241 213 226 223 214 189 248 280 288 292 287 282 276 271 263 257 259 268 280 284 284 284 282 276 280 278
70 61 57 57 56 55 52 41 36 43 39 48 195 230 244 247 271 250 237 245 248 195 172 238 260 266 270 274 279 285 279 272 268 267 269 272 278 281 283 283 277 277 279
70 65 60 58 58 55 55 55 35 23 34 40 36 28 359 334 330 311 304 302 257 169 233 262 265 268 271 274 276 278 280 280 277 272 272 275 277 279 281 283 284 281 280
62 60 62 58 56 53 51 49 51 46 25 11 15 19 16 15 23 30 34 63 22 249 257 269 277 280 279 278 278 280 282 285 283 281 279 279 280 282 284 285 284 282 283
53 52 54 54 54 53 51 51 48 45 37 12 2 6 13 22 40 46 69 25 294 289 284 279 277 278 278 278 279 279 278 280 282 282 280 279 280 280 281 283 283 280 279
44 46 50 50 47 46 44 43 38 34 29 18 4 351 355 11 5 354 347 318 300 295 292 287 284 281 278 279 281 279 278 278 279 278 279 279 279 278 280 283 284 283 282
49 43 46 49 42 35 30 24 17 17 9 354 338 332 341 333 319 317 314 305 298 296 295 292 291 290 287 285 282 281 281 279 277 278 279 281 282 282 283 283 283 283 282
57 50 43 40 32 24 15 9 8 4 346 333 327 329 326 328 317 311 308 306 304 298 294 292 290 287 285 284 284 283 282 283 283 282 281 282 282 283 284 284 284 284 284
56 50 39 28 23 18 12 358 348 340 329 324 325 326 327 322 316 311 310 309 308 306 305 299 294 293 293 291 286 279 278 281 284 286 285 283 282 281 282 282 283 286 284
49 45 34 15 7 2 350 340 337 333 330 327 326 323 320 319 316 313 311 310 308 305 303 299 294 295 300 301 295 288 283 286 291 287 283 280 280 280 278 278 279 280 282
29 22 12 360 353 348 343 341 340 339 336 332 329 326 324 323 321 318 316 313 310 307 308 307 304 303 304 304 301 299 298 296 291 287 284 278 275 275 276 277 277 280 280
20 12 5 359 355 350 347 343 339 337 336 334 333 332 330 327 324 323 321 318 316 313 311 310 308 309 309 308 306 306 302 296 291 284 277 272 270 270 274 275 279 279 281
Height
1496 1500 1504 1508 1512 1516 1520 1523 1527 1530 1533 1535 1537 1539 1541 1543 1544 1545 1546 1547 1548 1550 1551 1552 1553 1554 1555 1556 1556 1557 1558 1558 1558 1558 1558 1558 1558 1558 1558 1558 1557 1557 1556
1494 1498 1502 1506 1510 1513 1517 1520 1524 1527 1529 1532 1534 1536 1538 1539 1541 1542 1543 1545 1546 1547 1548 1549 1551 1551 1552 1553 1554 1554 1555 1555 1555 1555 1555 1555 1555 1554 1554 1553 1553 1552 1552
1493 1496 1500 1503 1507 1510 1514 1517 1520 1523 1526 1528 1530 1532 1534 1536 1537 1539 1540 1541 1543 1544 1545 1547 1548 1549 1549 1550 1550 1551 1551 1551 1551 1551 1550 1551 1550 1550 1549 1549 1548 1547 1547
1491 1494 1497 1501 1504 1507 1511 1514 1517 1519 1522 1524 1526 1528 1530 1532 1533 1535 1537 1538 1539 1540 1542 1543 1544 1545 1546 1546 1547 1547 1547 1547 1547 1546 1546 1546 1545 1545 1544 1544 1543 1542 1541
1488 1491 1495 1498 1502 1505 1507 1510 1513 1516 1518 1520 1522 1524 1526 1527 1529 1531 1532 1534 1535 1536 1537 1539 1540 1540 1541 1542 1542 1542 1542 1542 1542 1542 1541 1540 1540 1539 1539 1538 1537 1536 1535
1485 1488 1492 1495 1498 1501 1504 1507 1509 1511 1514 1516 1518 1520 1522 1523 1525 1526 1528 1529 1530 1531 1533 1534 1535 1535 1536 1537 1537 1537 1538 1537 1537 1536 1535 1535 1534 1534 1533 1532 1531 1529 1527
1482 1486 1489 1492 1495 1497 1500 1503 1505 1507 1510 1512 1514 1516 1517 1518 1520 1521 1523 1524 1525 1526 1527 1528 1529 1530 1531 1531 1531 1531 1531 1531 1531 1531 1529 1528 1528 1528 1527 1525 1524 1522 1521
1480 1482 1485 1488 1491 1494 1497 1499 1501 1504 1506 1508 1509 1511 1512 1513 1515 1516 1517 1518 1519 1520 1521 1522 1523 1524 1525 1525 1525 1525 1525 1524 1524 1524 1523 1522 1522 1521 1520 1519 1517 1515 1513
1477 1480 1482 1485 1488 1490 1492 1495 1497 1499 1501 1503 1504 1506 1507 1508 1510 1511 1512 1513 1513 1514 1515 1516 1517 1517 1518 1518 1518 1518 1518 1518 1518 1517 1516 1516 1515 1514 1513 1511 1509 1507 1504
1475 1478 1480 1483 1485 1487 1489 1491 1493 1495 1497 1499 1500 1501 1502 1503 1505 1506 1507 1508 1508 1509 1510 1511 1510 1510 1511 1512 1512 1511 1511 1510 1510 1509 1509 1508 1507 1506 1505 1504 1502 1500 1496
1474 1476 1478 1480 1482 1484 1486 1488 1490 1491 1493 1494 1495 1496 1497 1499 1500 1501 1502 1503 1504 1504 1504 1504 1505 1505 1505 1505 1505 1505 1504 1503 1502 1501 1500 1499 1499 1498 1497 1495 1494 1492 1490
1474 1475 1477 1479 1481 1483 1484 1486 1487 1489 1490 1491 1491 1492 1493 1494 1496 1497 1498 1499 1499 1500 1500 1500 1500 1500 1500 1500 1499 1498 1498 1497 1496 1494 1493 1492 1491 1490 1489 1488 1486 1484 1482
1474 1475 1477 1478 1480 1481 1482 1484 1485 1486 1487 1488 1489 1489 1490 1491 1492 1493 1494 1495 1495 1495 1495 1495 1495 1495 1495 1494 1493 1493 1492 1491 1490 1488 1487 1486 1484 1483 1481 1479 1478 1476 1474
1474 1475 1477 1478 1479 1480 1482 1483 1484 1485 1485 1486 1487 1487 1488 1489 1490 1490 1491 1491 1491 1491 1491 1490 1490 1490 1489 1488 1488 1487 1486 1485 1484 1482 1480 1479 1477 1475 1474 1472 1470 1467 1464
1476 1477 1478 1479 1479 1481 1482 1482 1483 1483 1484 1485 1485 1486 1486 1487 1487 1487 1487 1487 1487 1486 1486 1486 1485 1485 1484 1483 1482 1481 1480 1479 1477 1476 1474 1472 1470 1468 1466 1464 1462 1459 1457
1479 1479 1480 1480 1481 1481 1482 1482 1482 1483 1483 1484 1484 1484 1484 1485 1485 1484 1484 1484 1483 1483 1482 1481 1480 1479 1478 1477 1476 1475 1474 1473 1471 1469 1467 1465 1463 1461 1459 1457 1455 1452 1449
1481 1481 1481 1482 1482 1482 1482 1482 1482 1483 1483 1483 1483 1483 1483 1483 1482 1481 1481 1480 1480 1479 1477 1476 1475 1474 1473 1472 1471 1470 1468 1467 1465 1463 1461 1459 1456 1454 1451 1449 1447 1444 1441
1483 1483 1483 1483 1483 1482 1482 1482 1482 1482 1482 1482 1482 1482 1481 1480 1479 1478 1477 1477 1476 1475 1473 1472 1471 1469 1468 1467 1465 1464 1462 1461 1459 1457 1455 1453 1450 1448 1445 1442 1439 1436 1433
1485 1485 1485 1484 1484 1484 1483 1483 1483 1482 1482 1481 1481 1480 1479 1477 1477 1476 1474 1473 1472 1470 1469 1467 1466 1465 1463 1461 1460 1458 1456 1454 1452 1450 1448 1446 1444 1441 1438 1435 1432 1429 1426
1487 1487 1486 1485 1485 1484 1484 1483 1483 1482 1481 1480 1479 1478 1476 1475 1474 1473 1471 1470 1468 1466 1465 1463 1461 1460 1458 1456 1454 1452 1450 1448 1446 1444 1441 1439 1436 1434 1430 1427 1424 1421 1418
1488 1487 1487 1486 1485 1484 1483 1482 1481 1480 1479 1478 1477 1476 1474 1472 1471 1469 1468 1466 1464 1462 1460 1458 1456 1454 1452 1450 1448 1446 1444 1441 1439 1437 1434 1432 1429 1426 1423 1420 1417 1414 1410
1488 1487 1486 1485 1484 1483 1482 1481 1480 1478 1477 1476 1474 1473 1471 1469 1468 1466 1464 1462 1460 1458 1455 1453 1451 1449 1447 1445 1442 1440 1437 1435 1432 1429 1427 1424 1422 1418 1415 1412 1409 1406 1403
1488 1487 1485 1484 1483 1482 1480 1479 1478 1476 1474 1473 1471 1469 1467 1465 1464 1462 1459 1457 1455 1453 1451 1448 1446 1443 1441 1439 1436 1433 1430 1427 1425 1422 1419 1416 1413 1411 1408 1404 1402 1399 1396
1487 1485 1484 1483 1481 1480 1479 1477 1475 1473 1472 1470 1468 1466 1464 1462 1459 1457 1455 1453 1450 1448 1445 1443 1440 1437 1435 1432 1429 1426 1423 1420 1418 1415 1412 1409 1406 1403 1400 1398 1395 1392 1390
1486 1484 1483 1481 1480 1478 1476 1475 1473 1471 1469 1467 1465 1462 1460 1458 1455 1453 1450 1448 1445 1442 1440 1437 1434 1431 1428 1425 1422 1419 1416 1413 1410 1407 1404 1401 1398 1396 1394 1391 1388 1386 1384
1484 1483 1481 1480 1478 1476 1474 1472 1470 1468 1466 1464 1462 1459 1457 1454 1451 1449 1446 1443 1440 1437 1434 1431 1428 1425 1422 1418 1416 1413 1410 1407 1404 1401 1397 1394 1391 1389 1387 1385 1382 1380 1378